SANTA FE DAM CA US current weather conditions

sailwx.info

Wind from 338 at 1 knots gusting 2

Air temperature 21.1° C
Dewpoint 15.6° C

Last reported at 2015-Aug-30 11:57 UTC.
Time now 2015-Aug-30 14:03 UTC

Location: N 34°08' W 117°57'.
View on Google Maps.

See reports from other nearby stations

  
Tides and Currents Weather Stations Pressure Air Temp Water Temp Dewpoint Dewpoint Depression Visibility Wind Speed Wind Dir Waves Ship Positions
date/time (UTC)wind fromknots sea level pressurealtimeterstation pressurevisibilityair tempwater tempwave heightnotes
2015-Aug-30 11:57 338 1 gusting 2 21.1
2015-Aug-30 10:57 355 1 gusting 4 21.1
2015-Aug-30 09:57 273 2 gusting 120 22.8
2015-Aug-30 08:57 234 2 gusting 53 22.2
2015-Aug-30 07:57 128 0 gusting 39 23.3
2015-Aug-30 06:57 210 2 gusting 3 23.3
2015-Aug-30 05:57 248 2 gusting 3 25.6
2015-Aug-30 04:57 204 2 gusting 3 26.1
2015-Aug-30 03:57 195 3 gusting 6 26.1
2015-Aug-30 02:57 203 3 gusting 8 28.9
2015-Aug-30 01:57 207 5 gusting 15 33.3
2015-Aug-30 00:57 221 7 gusting 14 35.6
2015-Aug-29 23:57 223 8 gusting 17 38.3
2015-Aug-29 22:57 226 9 gusting 17 38.3
2015-Aug-29 21:57 220 9 gusting 19 39.4
2015-Aug-29 20:57 242 6 gusting 13 38.9
2015-Aug-29 19:57 162 5 gusting 13 39.4
2015-Aug-29 18:57 075 3 gusting 9 38.3
2015-Aug-29 17:57 218 2 gusting 7 36.1
2015-Aug-29 16:57 144 2 gusting 6 32.8
2015-Aug-29 15:57 238 3 gusting 6 29.4
2015-Aug-29 14:57 242 1 gusting 3 26.1
2015-Aug-29 13:57 277 1 gusting 3 21.7
2015-Aug-29 12:57 257 0 gusting 2 21.1
2015-Aug-29 11:57 026 0 gusting 51 21.7
2015-Aug-29 10:57 276 3 gusting 4 23.3
2015-Aug-29 09:57 277 1 gusting 26 22.8
2015-Aug-29 08:57 280 1 gusting 2 23.3
2015-Aug-29 07:57 298 2 gusting 3 23.3
2015-Aug-29 06:57 082 0 gusting 2 24.4
2015-Aug-29 05:57 267 2 gusting 27 25.6
2015-Aug-29 04:57 155 17 gusting 41 26.7
2015-Aug-29 03:57 066 14 gusting 53 27.2
2015-Aug-29 02:57 203 3 gusting 8 30.6
2015-Aug-29 01:57 223 5 gusting 13 33.9
2015-Aug-29 00:57 229 8 gusting 14 36.7
2015-Aug-28 23:57 240 8 gusting 17 38.9
2015-Aug-28 22:57 223 8 gusting 18 41.1
2015-Aug-28 21:57 218 7 gusting 14 42.8
2015-Aug-28 20:57 235 6 gusting 11 41.7
2015-Aug-28 19:57 231 6 gusting 12 40.0
2015-Aug-28 18:57 138 5 gusting 13 40.0
2015-Aug-28 17:57 251 4 gusting 10 37.8
2015-Aug-28 16:57 141 3 gusting 6 35.6
2015-Aug-28 15:57 260 1 gusting 4 32.8
2015-Aug-28 14:57 092 0 gusting 3 27.8